GFSGBSN_500_rhum_228.txt.gz
RH
12 10 12 12 13 17 18 18 18 19 20 18 17 17 18 18 18 18 18 18 18 17 18 22 23 26 27 28 30 33 35 30 30 32 40 42 42 45 42 26 22 21 21 20 20 21 24
18 11 10 12 13 16 20 22 19 20 20 18 20 18 19 19 19 19 18 18 17 17 16 22 24 26 26 28 30 37 38 34 32 34 37 42 42 42 44 47 28 24 23 22 23 23 21
46 17 11 11 14 16 20 23 24 22 20 18 20 20 20 20 20 20 20 18 18 17 16 18 26 25 26 26 31 39 42 41 35 32 40 45 44 40 42 43 46 34 27 25 24 25 23
89 28 16 11 12 16 19 23 29 25 22 21 21 20 20 21 21 21 20 20 19 18 17 16 21 24 26 25 30 37 42 42 40 41 34 46 45 42 39 42 42 46 39 30 26 25 23
90 82 27 14 12 16 18 21 27 26 26 22 22 21 20 21 22 22 21 20 20 19 19 17 19 22 26 25 27 33 35 44 40 41 44 44 42 37 39 42 43 44 48 42 33 30 26
96 91 80 30 13 14 18 20 23 27 27 24 24 21 21 21 22 23 22 21 21 20 19 18 17 21 23 25 25 30 33 41 41 39 43 45 43 36 40 43 41 38 52 55 45 38 32
96 99 83 42 18 13 16 18 21 25 26 27 25 23 22 22 23 24 23 22 22 21 20 20 18 21 23 23 25 28 33 35 38 39 42 46 41 38 34 36 39 43 50 54 53 47 38
77 91 89 67 27 17 16 19 20 22 24 29 28 24 24 24 24 24 24 23 22 21 20 19 18 20 22 24 26 27 33 34 33 38 38 46 43 38 38 38 38 44 51 55 52 46 44
33 97 98 64 46 63 21 23 21 21 22 25 26 24 24 25 25 25 25 24 23 22 21 20 18 20 25 26 26 27 30 33 32 36 39 49 48 42 42 42 39 38 46 54 54 53 45
19 94 99 96 97 85 25 35 27 21 21 22 24 24 24 25 26 26 26 25 24 23 22 20 20 20 26 28 28 28 32 33 34 37 41 42 48 48 44 45 42 39 40 42 53 57 59
31 98 98 93 97 72 91 31 23 22 22 23 23 24 23 25 26 27 27 26 25 24 23 21 19 18 22 26 30 35 38 40 32 36 39 43 46 48 50 45 44 44 44 42 43 45 45
100 97 69 83 98 62 90 88 32 24 26 23 24 24 24 25 27 28 28 26 25 26 22 22 20 18 20 30 42 44 42 44 33 34 37 40 42 48 51 50 45 48 46 42 38 40 29
44 90 62 95 96 91 83 51 34 31 28 26 26 25 30 27 30 30 29 28 28 25 21 21 21 20 22 28 33 36 34 45 42 37 47 47 48 43 49 53 48 49 50 46 40 38 38
90 81 69 97 92 98 92 64 69 75 38 29 30 30 29 29 32 30 30 29 27 23 23 22 22 22 22 25 31 37 33 42 47 45 49 54 55 51 46 56 54 48 48 50 49 46 38
55 44 79 86 96 86 100 92 78 94 91 37 36 31 31 32 34 32 31 30 32 24 23 23 23 24 26 27 28 34 31 32 45 52 60 62 61 62 48 50 57 52 50 49 47 39 33
8 94 97 97 100 99 95 98 56 44 47 44 38 34 35 39 38 36 33 33 35 25 26 24 24 28 30 34 33 31 30 29 40 48 62 68 66 64 65 51 52 60 53 50 45 37 31
4 94 82 74 87 96 96 98 60 50 69 68 52 42 38 42 43 38 29 31 40 26 28 25 29 29 30 34 36 39 37 28 30 41 59 73 81 70 63 69 74 52 52 51 51 42 34
9 84 87 82 97 99 97 97 96 96 90 97 73 57 58 44 42 35 30 35 34 27 30 29 29 32 36 36 37 47 51 27 28 37 87 76 84 80 64 61 64 73 57 48 46 44 33
29 96 99 99 92 92 98 100 96 98 93 78 72 46 47 49 43 34 34 44 41 37 34 39 40 32 34 36 44 48 46 34 33 36 92 90 77 78 68 59 61 64 74 69 54 45 31
55 100 97 97 98 100 100 100 100 97 95 80 80 61 52 45 46 41 50 60 59 41 44 53 46 40 36 41 61 55 48 55 40 60 96 93 81 74 72 72 71 56 58 65 56 44 36
74 87 100 99 99 98 99 98 98 98 100 98 98 94 84 51 44 46 48 44 52 52 49 50 50 49 45 55 64 66 67 81 94 94 96 92 70 75 81 80 71 61 52 66 56 50 41
100 93 99 100 97 100 99 99 98 98 98 99 97 95 76 58 56 57 50 52 49 48 44 36 44 46 53 81 74 82 100 95 92 91 90 80 61 79 68 86 76 48 44 68 57 52 40
100 100 100 98 100 98 98 99 98 100 98 96 97 92 91 83 79 74 54 57 55 56 55 61 63 74 85 82 96 99 97 91 93 96 86 97 81 97 66 100 94 37 38 51 45 50 64
100 99 100 98 93 99 96 100 99 100 100 99 99 99 99 94 96 83 70 70 69 80 84 77 96 93 93 100 96 92 92 92 95 92 100 90 95 100 81 100 77 26 50 48 50 47 52
100 100 100 99 98 97 100 100 96 99 100 96 98 97 98 78 90 99 92 100 98 99 96 98 80 70 100 99 96 89 87 99 83 80 83 90 100 94 93 95 61 28 48 56 53 34 50
74 94 96 96 94 94 94 93 95 97 95 98 99 98 99 97 98 98 97 100 99 98 100 86 100 100 100 98 97 94 90 80 82 74 78 95 99 99 92 94 66 19 60 58 56 27 69
81 55 64 72 78 88 83 92 94 90 96 98 96 96 97 99 100 95 98 94 96 92 94 100 100 98 100 97 98 95 89 84 86 72 72 81 95 95 88 96 55 36 67 64 52 34 57
54 35 39 43 60 77 92 94 93 95 100 100 98 100 99 97 95 96 98 96 95 96 93 84 88 90 98 99 99 92 90 80 75 64 74 79 76 75 71 84 72 49 72 61 69 69 47
24 61 40 30 37 51 59 63 80 95 96 94 87 97 100 100 94 96 94 94 90 88 94 91 89 85 92 98 93 95 97 85 75 67 74 90 61 67 62 63 79 74 72 64 56 67 63

GFSGBSN_500_rhum_231.txt.gz
RH
44 22 15 13 14 12 14 24 20 19 20 16 15 16 16 17 18 19 19 18 18 19 20 19 17 22 25 25 27 30 31 32 34 30 29 32 41 43 46 37 23 20 18 17 18 18 21
88 80 22 14 14 14 12 16 29 20 22 19 18 16 17 18 18 19 20 19 19 19 18 18 17 19 24 24 26 32 37 34 34 34 33 34 44 45 43 46 44 28 22 20 19 19 19
47 79 88 23 13 14 13 13 24 25 25 21 22 20 18 19 19 19 20 20 20 19 19 18 17 17 22 24 25 31 33 36 36 35 36 39 45 45 44 42 45 49 32 25 22 20 21
59 61 96 30 19 14 14 14 16 26 27 26 25 26 21 21 20 20 21 21 21 20 19 18 18 17 19 24 25 26 31 34 36 37 38 38 43 40 43 42 41 42 46 40 32 24 22
95 92 97 79 26 16 14 14 15 22 25 29 28 28 25 23 22 20 21 22 22 22 20 19 19 17 17 21 24 24 28 29 33 34 39 38 45 40 39 38 42 42 42 52 70 36 28
96 46 58 96 56 23 14 14 14 20 26 31 33 33 30 26 25 22 21 22 22 22 22 20 19 18 18 20 22 24 26 28 31 31 33 39 39 44 40 36 40 78 70 53 68 71 41
72 44 30 87 75 50 22 15 15 17 24 30 38 36 32 30 28 25 22 22 24 23 22 22 20 20 18 19 21 23 24 28 32 33 30 34 38 43 40 36 42 45 47 50 71 58 42
4 95 92 39 97 85 61 37 15 16 19 26 40 37 36 34 30 30 23 23 23 24 22 23 22 20 19 18 20 23 26 27 30 31 32 33 39 47 45 43 39 43 47 48 49 52 46
6 9 99 32 59 98 96 77 19 16 18 22 29 41 41 37 34 33 26 24 24 25 23 23 23 21 20 19 19 23 26 27 28 32 34 37 38 42 49 45 43 43 45 46 44 49 52
8 5 4 5 89 93 96 90 43 18 17 19 23 34 39 40 31 37 29 28 25 26 26 23 23 22 21 20 18 24 27 27 28 36 36 34 39 42 44 47 45 44 44 44 47 52 59
8 6 7 29 61 66 75 95 85 46 20 20 20 24 34 38 33 38 32 33 28 28 27 24 21 22 22 21 18 23 26 29 44 42 41 35 34 40 42 44 49 49 48 45 44 46 46
8 8 6 4 89 68 88 94 96 92 44 22 21 21 25 27 30 34 38 35 30 30 25 24 22 21 23 22 21 19 26 43 44 43 41 34 38 42 39 42 42 49 50 48 45 43 33
6 8 7 5 55 70 85 98 97 94 59 24 24 26 21 24 27 29 33 32 32 28 25 24 25 23 22 22 22 21 31 38 40 41 42 42 38 44 49 49 46 43 49 53 73 69 50
6 6 7 6 5 86 48 81 86 89 70 31 45 27 25 25 26 27 29 31 31 27 25 24 25 25 24 23 23 22 25 26 34 35 36 47 46 53 53 54 52 45 45 52 64 100 98
4 5 6 7 16 61 99 99 60 96 66 76 91 39 85 51 53 29 31 32 25 24 25 26 27 26 26 24 25 24 24 23 31 36 35 37 42 45 53 61 57 58 44 51 52 50 48
2 4 5 6 5 10 95 100 100 97 91 97 59 43 75 33 32 33 59 29 25 29 28 26 26 28 28 26 26 26 27 26 31 33 34 45 35 40 46 60 64 60 67 50 46 46 43
9 3 4 5 5 5 44 78 78 98 98 98 96 86 42 39 37 42 41 38 28 36 31 26 28 30 30 28 26 26 28 29 32 33 37 66 42 34 38 55 63 70 58 67 64 57 50
92 6 3 4 5 4 92 99 99 97 100 96 84 92 84 59 52 72 38 37 31 42 45 29 29 28 30 29 29 27 28 31 30 33 37 44 81 40 30 41 68 52 68 68 60 47 51
100 45 4 4 4 11 92 88 95 97 95 89 78 86 76 62 68 52 51 48 35 35 32 27 29 29 34 35 30 28 30 32 31 34 36 48 68 50 38 36 53 60 55 56 60 60 42
100 100 18 3 3 8 36 72 94 96 93 98 100 85 69 83 73 58 57 53 53 39 34 30 30 32 33 36 31 29 31 31 34 35 37 75 84 71 60 48 50 82 58 46 54 49 44
100 100 64 3 2 10 63 99 98 94 82 100 100 94 85 59 51 55 70 49 52 41 37 36 35 37 32 34 33 32 42 49 45 36 48 82 75 74 66 86 75 70 53 55 45 38 38
100 100 88 2 3 77 99 99 98 100 96 99 95 81 81 74 66 59 60 44 43 39 46 38 38 39 37 38 42 39 53 68 79 71 67 83 76 86 73 77 67 46 43 47 50 47 36
100 94 89 46 23 97 100 97 96 98 99 97 96 96 97 83 66 66 48 44 63 64 57 56 43 43 40 44 62 59 71 81 70 68 75 80 83 88 58 85 80 30 34 39 44 49 51
100 100 59 99 89 67 100 97 79 100 99 95 92 98 84 69 78 44 64 70 75 60 48 48 46 45 40 51 62 82 90 79 65 62 73 92 97 94 71 83 68 22 41 43 43 49 58
100 100 91 89 71 99 99 99 100 98 98 100 89 96 78 72 61 85 68 67 70 70 62 54 50 45 64 66 94 96 92 87 75 86 100 99 98 84 96 88 51 28 34 50 56 32 39
100 100 71 99 100 100 98 99 99 98 99 98 92 99 98 82 85 84 84 84 81 89 92 91 88 95 96 96 99 96 95 95 88 66 75 86 94 100 96 94 54 33 44 54 60 16 64
100 100 100 100 100 100 100 100 100 99 99 99 99 98 99 100 89 95 88 94 100 97 92 91 96 94 100 97 97 97 94 98 82 67 89 93 100 96 99 95 49 41 61 92 64 31 65
99 99 100 100 100 99 100 100 100 99 99 98 98 100 99 99 99 99 100 100 99 98 97 96 99 97 98 99 98 98 95 88 73 77 94 99 95 86 98 98 48 46 67 75 63 71 75
81 88 99 100 100 99 98 100 99 99 99 98 96 92 97 100 94 100 98 92 94 99 99 96 99 99 96 98 97 97 98 90 69 68 92 97 84 86 77 68 62 62 68 60 59 60 55

GFSGBSN_500_rhum_234.txt.gz
RH
79 74 24 20 14 15 14 12 13 18 18 21 22 19 16 14 15 16 17 18 18 18 20 22 22 17 21 22 25 28 27 28 32 31 32 34 32 37 42 44 33 20 18 16 16 17 18
30 66 86 31 21 15 15 14 13 14 18 20 21 23 21 16 16 16 17 19 20 20 19 21 21 18 15 20 24 27 29 28 29 32 36 37 37 36 43 44 44 40 31 20 17 17 18
31 41 52 86 30 23 15 17 15 14 21 23 24 24 25 19 17 17 17 19 20 21 20 20 20 18 15 18 23 25 28 30 26 29 34 38 40 38 41 46 42 42 40 41 32 21 19
11 32 29 38 76 47 30 16 18 16 18 26 27 26 28 24 20 18 18 19 20 21 21 21 20 18 16 16 19 23 25 27 29 27 30 35 37 40 41 45 44 42 39 38 40 38 31
9 8 26 32 64 89 67 33 18 18 16 24 32 29 33 29 25 21 19 20 21 22 22 21 20 19 18 18 15 20 24 24 28 28 29 30 36 37 42 42 38 36 43 43 42 46 47
11 8 89 88 99 61 66 65 42 24 17 17 29 37 32 33 30 28 22 21 22 23 22 23 21 20 19 18 17 18 21 24 25 28 31 29 31 36 44 44 41 56 96 80 72 97 61
9 10 19 96 66 32 72 79 77 58 16 17 21 38 38 35 35 32 26 25 28 24 21 23 22 22 20 19 17 17 18 22 24 28 29 30 32 34 38 46 44 49 46 50 76 96 82
9 9 10 8 55 98 100 96 98 97 33 18 18 38 45 41 38 36 33 29 32 24 22 24 24 21 23 19 20 18 17 22 24 26 28 29 34 38 40 46 48 46 46 45 46 50 52
10 10 10 10 10 29 96 97 98 95 53 18 18 27 51 48 42 37 39 38 34 31 23 25 25 22 22 22 20 20 18 20 24 26 27 29 36 36 38 43 47 50 48 49 45 43 38
12 11 11 10 9 6 8 73 96 97 71 19 19 19 35 51 44 43 42 46 41 44 30 21 24 22 23 23 21 21 19 19 23 26 27 36 42 40 35 41 43 48 50 50 50 46 38
8 12 11 11 10 7 4 37 99 99 89 44 52 25 22 39 53 47 48 50 49 51 48 26 23 21 23 23 23 22 21 18 23 26 29 43 44 39 33 37 39 43 42 51 52 50 48
6 8 11 11 10 9 18 92 92 99 98 78 28 22 20 26 42 54 56 56 60 60 45 30 23 20 23 25 25 22 21 21 21 23 40 47 41 40 38 38 45 47 49 45 46 50 46
3 6 8 10 11 10 10 15 76 98 100 98 93 52 25 31 26 50 64 68 70 65 30 35 23 23 21 24 26 24 23 21 21 24 42 40 40 41 41 41 44 52 52 52 50 44 51
3 3 7 8 9 10 8 6 96 98 98 99 95 93 39 47 29 31 62 73 74 31 36 36 32 27 23 23 24 24 23 22 22 32 37 35 36 56 70 47 41 40 50 54 56 72 86
6 3 4 6 9 9 8 6 13 90 98 65 100 96 83 41 25 24 39 55 37 24 34 43 37 28 23 25 25 27 26 24 25 32 43 30 36 53 53 47 42 40 48 60 59 54 51
36 9 3 5 5 8 9 6 5 36 35 73 95 93 86 42 28 27 33 31 24 25 37 37 35 30 25 26 26 27 28 26 26 25 28 50 36 40 45 47 51 40 45 65 62 55 49
79 38 6 3 6 7 8 6 5 31 99 82 99 94 84 84 69 38 31 30 31 25 30 40 41 30 27 30 28 27 27 28 27 28 28 35 37 40 48 52 55 63 48 35 45 63 60
100 89 19 3 4 6 7 7 18 64 97 100 93 80 88 98 92 87 53 34 61 45 29 31 33 31 30 28 33 28 28 29 30 29 30 30 35 54 50 52 48 50 59 51 43 46 67
98 88 85 17 3 5 7 6 10 72 98 98 90 70 98 100 94 64 40 39 59 43 37 45 33 34 30 28 33 33 29 30 35 32 29 32 36 53 48 41 48 51 70 60 50 43 43
100 100 100 72 3 4 6 6 5 80 65 99 99 96 100 98 79 74 55 50 52 62 67 61 51 54 46 29 37 36 38 37 35 35 32 33 35 44 51 51 47 51 55 73 82 57 48
99 100 100 100 8 3 5 6 5 9 100 98 98 97 90 66 49 37 58 66 61 63 57 50 43 44 38 33 40 41 38 40 37 37 36 38 66 44 55 59 54 53 45 55 71 63 70
100 100 100 100 57 3 4 5 5 6 89 97 97 88 81 74 76 77 63 54 53 49 54 47 44 49 39 35 33 39 47 44 42 40 41 41 50 60 58 64 62 49 45 64 64 58 47
94 100 100 100 100 21 4 5 5 5 20 98 87 91 72 70 82 94 76 50 45 65 66 54 58 58 53 48 47 48 52 48 47 58 64 70 68 66 41 65 62 38 37 47 48 53 50
96 100 100 100 100 99 24 4 5 9 96 81 35 64 68 91 80 51 46 73 68 72 68 63 68 56 57 58 56 57 55 54 67 76 63 71 73 68 51 69 54 22 45 54 50 48 50
100 100 100 98 96 100 53 4 3 7 92 87 99 96 90 71 77 73 76 81 92 79 72 74 81 96 95 73 72 78 84 81 58 59 63 66 65 63 70 70 48 26 41 59 48 35 53
95 100 100 93 95 96 100 22 3 6 100 58 98 96 97 97 96 83 100 96 93 88 80 74 84 74 74 89 95 88 80 68 67 63 61 64 72 76 78 78 50 30 45 60 54 30 79
96 84 94 100 100 100 88 100 57 94 58 96 86 40 95 97 98 92 96 86 94 98 95 100 99 84 95 96 96 91 82 82 69 54 62 83 96 91 85 94 44 42 58 86 74 56 98
99 89 77 95 99 100 100 94 100 100 81 79 99 98 98 82 86 63 74 100 98 100 98 95 100 97 99 98 98 87 84 65 73 70 87 98 100 98 100 97 42 47 70 86 92 94 91
100 99 92 77 100 100 98 98 92 92 97 97 92 76 74 76 77 92 90 100 93 97 95 96 100 99 100 98 95 97 91 90 82 86 100 97 93 100 89 70 82 86 100 92 66 55 65

GFSGBSN_500_rhum_237.txt.gz
RH
28 45 50 60 24 17 15 16 14 13 17 20 22 19 17 16 14 15 16 17 17 17 17 18 19 22 20 18 24 23 24 26 30 33 32 28 31 28 33 40 38 32 18 19 20 17 14
20 45 31 45 53 63 18 15 16 14 17 22 26 23 22 19 17 15 16 18 18 18 17 17 17 21 21 18 25 24 23 26 26 30 33 33 31 30 34 36 38 42 36 28 22 16 16
33 55 46 94 39 62 64 19 16 17 14 20 26 28 27 23 20 17 16 17 20 19 19 18 17 18 21 21 20 25 24 24 24 25 28 29 30 32 32 39 38 41 37 35 38 36 27
10 10 26 28 27 40 62 75 21 17 17 14 20 30 34 30 26 21 18 17 20 20 20 20 17 17 19 19 18 21 23 23 25 26 26 26 27 31 33 37 40 41 40 41 46 40 40
12 12 10 10 19 26 42 80 72 44 17 18 15 23 35 36 34 28 23 20 21 20 21 21 19 17 19 18 18 17 19 21 24 25 28 29 29 28 32 35 41 41 38 35 44 51 45
7 10 13 11 8 48 43 97 75 72 33 18 18 16 28 42 38 35 30 25 24 21 21 20 21 19 19 19 18 18 16 18 21 24 27 29 29 31 32 35 41 39 36 36 36 52 58
8 7 8 13 12 36 82 88 82 81 76 32 17 18 16 41 44 39 37 32 30 25 20 21 20 20 20 20 19 20 18 17 18 22 24 28 28 30 33 35 36 41 33 36 46 77 68
3 9 8 8 12 11 10 8 96 94 91 78 42 32 18 17 41 45 40 37 35 29 20 21 23 20 22 21 20 20 19 17 18 20 23 27 27 29 35 36 38 40 43 42 44 61 76
4 3 6 9 8 11 12 11 14 71 80 79 70 58 32 22 18 38 45 42 42 35 30 27 24 21 24 23 20 22 20 18 18 18 22 25 27 31 42 41 36 41 43 44 42 51 51
6 5 3 3 10 10 12 13 10 36 60 87 88 84 71 40 28 18 42 51 50 42 40 21 27 19 22 24 21 22 22 20 19 18 20 24 27 32 44 40 34 37 39 40 46 48 44
6 6 4 3 3 11 10 12 10 40 97 98 98 97 85 73 87 27 31 62 58 50 52 32 28 22 25 28 24 24 25 22 19 21 20 21 26 31 42 41 39 38 41 45 44 44 42
5 6 5 4 4 3 12 11 11 10 84 99 64 54 86 99 88 45 23 65 65 64 55 42 31 23 23 29 30 24 25 24 21 21 20 20 26 29 43 41 41 40 41 43 47 49 43
8 5 4 5 5 5 4 13 12 10 14 49 96 97 97 99 91 49 38 46 78 79 48 48 41 28 25 28 28 26 25 24 23 22 21 21 24 34 35 37 40 40 44 42 37 39 45
11 6 5 4 4 5 5 7 13 12 10 12 97 100 97 92 100 67 23 35 79 71 50 48 50 42 38 32 28 28 26 25 24 24 23 21 23 32 37 36 44 48 46 44 47 38 40
17 9 7 6 4 4 6 4 12 13 11 10 100 99 98 75 99 56 23 26 35 41 47 55 62 53 41 33 30 30 26 24 25 25 24 23 26 36 37 38 37 44 46 52 55 43 35
23 15 11 9 6 4 4 7 6 13 12 10 23 97 84 61 100 91 35 43 46 44 42 60 77 63 51 41 38 30 28 25 26 27 26 26 31 37 41 46 51 45 44 54 56 58 50
19 20 22 15 8 5 3 6 5 12 11 9 12 99 94 100 100 97 75 54 43 44 43 56 69 72 68 60 44 32 28 28 28 30 30 34 35 35 35 37 44 40 48 52 50 50 50
36 49 47 36 22 8 4 4 6 10 10 8 6 79 94 100 98 90 80 28 44 51 51 40 52 57 61 60 51 38 31 29 27 33 34 31 29 28 30 38 39 40 53 55 45 44 45
84 75 72 55 31 14 8 3 5 9 9 8 12 77 99 100 97 92 48 60 61 55 55 53 35 43 45 50 49 44 33 30 29 32 34 33 31 32 35 36 38 40 47 46 42 45 43
92 81 82 71 58 33 23 3 4 8 10 7 26 98 100 99 98 78 56 43 37 52 56 53 40 40 36 36 36 38 43 43 34 30 32 32 33 33 35 39 36 42 50 49 47 52 53
92 89 88 88 86 78 42 5 3 7 9 6 10 95 98 96 97 80 55 57 65 52 52 50 47 42 37 28 32 33 36 47 42 40 35 40 52 35 33 43 47 51 57 55 52 47 54
84 83 81 79 88 84 67 7 3 6 8 5 54 71 99 97 58 63 29 16 41 58 64 51 48 36 42 62 60 36 57 52 57 73 58 56 74 68 48 40 42 46 38 42 44 44 54
100 100 100 100 100 100 92 13 3 5 5 20 93 58 44 52 57 76 37 16 31 55 73 64 66 54 44 54 58 64 71 93 89 85 71 65 67 68 49 45 44 33 34 40 43 51 52
100 100 100 100 100 100 97 22 3 4 5 19 92 43 97 98 100 56 32 51 53 40 66 83 78 74 65 60 67 91 92 73 82 85 71 70 64 66 59 54 48 24 37 44 44 48 59
100 99 100 100 100 100 93 77 5 4 5 63 66 66 49 69 80 81 94 85 65 85 83 95 96 97 89 97 92 92 87 84 66 78 90 90 88 76 61 58 46 26 38 50 63 36 60
100 100 100 100 100 96 93 33 3 4 5 36 30 43 70 94 82 87 100 76 100 88 99 94 100 100 99 97 95 91 84 69 65 61 72 84 87 85 78 74 58 28 52 52 53 47 90
83 99 99 100 100 96 96 30 40 5 4 8 60 88 100 95 31 74 42 51 90 100 98 99 98 98 100 98 98 95 89 84 63 67 72 86 88 88 88 88 54 46 62 91 83 59 97
100 100 99 100 100 100 97 59 12 16 5 8 5 10 25 55 82 72 77 76 86 91 95 93 100 98 100 99 99 86 72 74 74 59 69 78 84 73 84 92 56 52 74 84 71 86 85
100 100 100 100 100 100 100 100 28 8 5 4 7 96 93 60 48 58 53 44 49 89 98 98 97 98 99 100 98 92 86 78 79 65 90 77 65 84 96 76 74 88 92 85 88 77 88